Location: Newark
(42.8481°N, 0.4872°E)
Time: 08:28:44
(UTC+00:00)

SR - Pass Details

Date: 08 November 2020
Orbit: 579 x 876 km, 66.7° (Epoch: 29 November)

Event Time Altitude Azimuth Distance (km) Brightness Sun altitude
Rises 08:47:43 0° 324° (NW) 3,129 ? 18.2°
Reaches altitude 10° 08:50:03 10° 319° (NW) 2,252 ? 18.5°
Maximum altitude 08:55:02 50° 245° (WSW) 993 ? 19.2°
Drops below altitude 10° 09:00:24 10° 171° (S) 2,419 ? 19.8°
Sets 09:02:59 0° 166° (SSE) 3,383 ? 20.1°
